Regional Weather Roundup
Issued by NWS

Home | Current Version | Previous Version | Graphics & Text | Print | Product List | Glossary Off
Versions: 1 2 3 4 5 6 7 8 9 10 11 12 13 14 15 16 17 18 19 20 21 22 23 24 25 26 27 28 29 30 31 32 33 34 35 36 37 38 39 40 41 42 43 44 45 46 47 48 49 50

000
ASUS43 KOAX 151810
RWRNE

WEATHER ROUNDUP FOR NEBRASKA
NATIONAL WEATHER SERVICE OMAHA NE
1200 PM CST FRI DEC 15 2017

NOTES: SATELLITE DATA IS BEING USED TO AUGMENT CLOUD COVER ABOVE
       12000 FEET.
       "FAIR" INDICATES FEW OR NO CLOUDS BELOW 12,000 FEET WITH NO
       SIGNIFICANT WEATHER AND/OR OBSTRUCTIONS TO VISIBILITY.


NEZ001>004-019>022-054>056-151900-
NEBRASKA PANHANDLE

CITY           SKY/WX    TMP DP  RH WIND       PRES   REMARKS
SCOTTSBLUFF    SUNNY     51  18  27 W10       29.93F
6HR MIN TEMP:  10; 6HR MAX TEMP:  51;

ALLIANCE       SUNNY     51  16  24 W16       29.90F
6HR MIN TEMP:  10; 6HR MAX TEMP:  51;

CHADRON        CLOUDY    45  20  36 SW6       29.87F
6HR MIN TEMP:  14; 6HR MAX TEMP:  45;

GORDON         FAIR      45  20  37 W16G25    29.84F
6HR MIN TEMP:  21; 6HR MAX TEMP:  45;

KIMBALL        SUNNY     51  12  21 W24G33    29.98S
SIDNEY         SUNNY     52  13  21 NW20G32   29.96F
6HR MIN TEMP:  18; 6HR MAX TEMP:  52;

$$

NEZ057>060-069>072-079>082-151900-
SOUTHWEST NEBRASKA

CITY           SKY/WX    TMP DP  RH WIND       PRES   REMARKS
NORTH PLATTE   SUNNY     41  21  44 W9        29.96F
6HR MIN TEMP:  13; 6HR MAX TEMP:  41;

IMPERIAL       SUNNY     48  16  27 W12       29.98F
6HR MIN TEMP:  18; 6HR MAX TEMP:  48;

LEXINGTON      SUNNY     45  22  40 W12       29.97F
MCCOOK         SUNNY     43  18  36 W9        30.00F
6HR MIN TEMP:  15; 6HR MAX TEMP:  43;

OGALLALA       SUNNY     41  22  46 SW7       29.95F
$$

NEZ005>010-023>029-035>040-094-151900-
NORTH CENTRAL NEBRASKA

CITY           SKY/WX    TMP DP  RH WIND       PRES   REMARKS
VALENTINE      CLOUDY    39  27  62 W12       29.84F WCI  32
6HR MIN TEMP:  23; 6HR MAX TEMP:  39;

AINSWORTH      MOSUNNY   35  29  79 SW10      29.84F WCI  28
BROKEN BOW     SUNNY     39  28  64 W13       29.92F WCI  31
6HR MIN TEMP:  19; 6HR MAX TEMP:  39;

O`NEILL        CLOUDY    37  28  71 SW7       29.87F WCI  31
ORD            SUNNY     39  27  62 SW10      29.91F WCI  32
6HR MIN TEMP:  21; 6HR MAX TEMP:  39;

THEDFORD       SUNNY     48  25  40 W16G23    29.89F
$$

NEZ041-046>049-061>064-073>077-083>087-151900-
SOUTH CENTRAL NEBRASKA

CITY           SKY/WX    TMP DP  RH WIND       PRES   REMARKS
GRAND ISLAND   SUNNY     36  27  69 W14       29.97F WCI  27
6HR MIN TEMP:  24; 6HR MAX TEMP:  38;

AURORA         SUNNY     38  30  73 SW16      29.97F WCI  29
HASTINGS       SUNNY     39  27  62 SW12G23   29.97F WCI  32
6HR MIN TEMP:  21; 6HR MAX TEMP:  39;

HEBRON         SUNNY     39  30  68 SW15G21   30.02F WCI  31
HOLDREGE       SUNNY     39  24  54 W15       29.98F WCI  30
KEARNEY        SUNNY     37  23  56 SW13      29.97F WCI  29
YORK           SUNNY     37  32  81 SW15      29.98S WCI  28
$$

NEZ011>018-030>034-042>045-151900-
NORTHEAST NEBRASKA

CITY           SKY/WX    TMP DP  RH WIND       PRES   REMARKS
NORFOLK        PTSUNNY   38  26  62 W13       29.89F WCI  30
6HR MIN TEMP:  26; 6HR MAX TEMP:  39;

ALBION         SUNNY     37  29  72 W8        29.92F WCI  30
BLAIR          SUNNY     40  26  58 SW16G24   29.96F WCI  32
COLUMBUS       CLOUDY    39  26  59 SW14      29.96F WCI  31
FREMONT        CLOUDY    42  25  51 SW13G20   29.96F
TEKAMAH        MOSUNNY   44  25  47 SW17G29   29.94F
6HR MIN TEMP:  31; 6HR MAX TEMP:  44;

WAYNE          CLOUDY    40  24  53 W12       29.91F WCI  33
$$

NEZ050>053-065>068-078-088>093-151900-
SOUTHEAST NEBRASKA

CITY           SKY/WX    TMP DP  RH WIND       PRES   REMARKS
LINCOLN        SUNNY     43  26  51 SW18      30.00F
6HR MIN TEMP:  27; 6HR MAX TEMP:  43;

OMAHA EPPLEY   PTSUNNY   42  23  46 SW13      29.98F
6HR MIN TEMP:  34; 6HR MAX TEMP:  42;

BEATRICE       SUNNY     42  30  62 SW15G25   30.03F
FALLS CITY     SUNNY     43  19  38 SW20      30.06F
6HR MIN TEMP:  29; 6HR MAX TEMP:  43;

NEBRASKA CITY  MOSUNNY   41  23  48 SW17G24   30.01F
PLATTSMOUTH    CLOUDY    43  25  49 SW18      30.00F
$$

NEZ044-045-051>053-067-151900-
OMAHA AREA

CITY           SKY/WX    TMP DP  RH WIND       PRES   REMARKS
OMAHA EPPLEY   PTSUNNY   42  23  46 SW13      29.98F
6HR MIN TEMP:  34; 6HR MAX TEMP:  42;

BLAIR          SUNNY     40  26  58 SW16G24   29.96F WCI  32
FREMONT        CLOUDY    42  25  51 SW13G20   29.96F
MILLARD        MOSUNNY   42  27  53 W13G21    29.98F
OFFUTT AFB     PTSUNNY   42  23  46 SW16      29.98F
PLATTSMOUTH    CLOUDY    43  25  49 SW18      30.00F
WAHOO          FAIR      42  25  51 SW18G25   29.97F
$$




USA.gov is the U.S. government's official web portal to all federal, state and local government web resources and services.